Location: Unspecified
(50.7693°N, 0.0000°E)
Time: 04:20:31
(UTC+00:00)

SR - Pass Details

Date: 03 July 2019
Orbit: 580 x 876 km, 66.7° (Epoch: 17 July)

Event Time Altitude Azimuth Distance (km) Brightness Sun altitude
Rises 09:25:40 0° 321° (NW) 3,026 ? 48.6°
Reaches altitude 10° 09:27:54 10° 319° (NW) 2,152 ? 49.0°
Maximum altitude 09:32:47 73° 236° (SW) 773 ? 49.6°
Drops below altitude 10° 09:38:06 10° 153° (SSE) 2,335 ? 50.4°
Sets 09:40:37 0° 151° (SSE) 3,304 ? 50.7°
